EHI
56 57 77 91 82 70 64 53 40 36 29 14 4 2 3 4 6 13 40 75 92 90 84 73 60 44 28 17 11 9 11 13 10 5 2 3 3 1 0 0 0 0 0
80 81 89 95 85 70 66 65 56 48 37 21 11 7 7 6 8 17 40 70 89 91 87 76 66 55 40 27 19 15 15 17 13 6 2 2 2 1 0 0 0 0 0
98 98 98 98 89 76 74 76 70 62 50 36 25 19 17 15 16 22 37 55 69 78 82 80 71 62 49 36 29 23 21 21 16 8 2 1 1 0 0 0 0 0 0
100 100 99 98 93 87 84 82 77 72 64 54 41 31 26 25 23 25 32 41 46 54 67 73 71 62 47 36 32 30 27 24 17 8 3 0 0 0 0 0 0 0 0
99 100 100 98 94 93 91 85 81 78 73 62 47 32 25 24 22 23 28 33 37 43 47 55 61 53 39 32 30 29 30 27 18 9 4 1 0 0 0 0 0 0 0
99 99 99 97 95 93 89 84 80 78 72 61 44 30 22 19 18 18 22 25 29 33 31 36 45 40 28 23 22 23 25 24 19 13 7 3 1 0 0 0 0 0 0
99 99 98 97 96 92 86 82 80 75 66 56 43 31 23 19 16 16 20 22 18 16 18 24 31 30 21 14 12 13 13 13 15 14 9 5 3 1 1 0 0 0 0
99 98 97 98 96 91 84 81 78 69 57 48 42 33 26 20 15 13 19 24 19 15 15 16 20 22 18 10 6 4 3 3 7 9 7 5 3 1 0 0 0 0 0
99 98 98 96 94 91 85 80 74 62 48 41 37 32 25 18 12 10 13 21 26 23 15 9 8 11 11 7 4 1 0 0 2 3 3 2 2 1 0 0 0 0 0
97 97 96 94 92 90 86 78 69 59 48 39 34 29 21 14 8 6 6 13 22 20 11 4 2 3 4 3 2 1 0 0 0 0 1 1 1 0 0 0 0 0 0
95 94 93 92 90 88 83 74 65 58 49 39 32 25 17 10 6 3 3 5 9 9 6 2 0 0 1 1 1 0 0 0 0 0 0 0 0 0 0 0 0 0 0
91 90 90 90 88 85 78 68 61 54 44 33 25 19 14 8 5 3 2 1 1 2 3 2 1 0 0 0 0 0 0 0 0 0 0 0 0 0 0 0 0 0 0
82 82 82 82 80 76 70 63 57 48 36 25 17 13 9 7 5 3 1 0 0 0 1 1 1 0 0 0 0 0 0 0 0 0 0 0 0 0 0 0 0 0 0
68 68 70 70 67 63 60 57 52 42 31 21 13 8 5 4 4 2 0 0 0 0 0 0 0 0 0 0 0 0 0 0 0 0 0 0 0 0 0 0 0 0 0
51 54 56 53 51 49 47 45 40 30 23 16 10 4 2 2 2 1 0 0 0 0 0 0 0 0 0 0 0 0 0 0 0 0 0 0 0 0 0 0 0 0 0
34 37 39 36 33 31 28 25 22 16 12 9 5 1 0 1 1 0 0 0 0 0 0 0 0 0 0 0 0 0 0 0 0 0 0 0 0 0 0 0 0 0 0
18 21 23 21 17 13 10 9 8 6 4 3 2 0 0 0 0 0 0 0 0 0 0 0 0 0 0 0 0 0 0 0 0 0 0 0 0 0 0 0 0 0 0
8 11 12 10 6 3 2 2 2 2 1 1 0 0 0 0 0 0 0 0 0 0 0 0 0 0 0 0 0 0 0 0 0 0 0 0 0 0 0 0 0 0 0
3 5 6 4 1 0 0 0 0 0 0 0 0 0 0 0 0 0 0 0 0 0 0 0 0 0 0 0 0 0 0 0 0 0 0 0 0 0 0 0 0 0 0
1 1 2 1 0 0 0 0 0 0 0 0 0 0 0 0 0 0 0 0 0 0 0 0 0 0 0 0 0 0 0 0 0 0 0 0 0 0 0 0 0 0 0
0 0 0 0 0 0 0 0 0 0 0 0 0 0 0 0 0 0 0 0 0 0 0 0 0 0 0 0 0 0 0 0 0 0 0 0 0 0 0 0 0 0 0
0 0 0 0 0 0 0 0 0 0 0 0 0 0 0 0 0 0 0 0 0 0 0 0 0 0 0 0 0 0 0 0 0 0 0 0 0 0 0 0 0 0 0
0 0 0 0 0 0 0 0 0 0 0 0 0 0 0 0 0 0 0 0 0 0 0 0 0 0 0 0 0 0 0 0 0 0 0 0 0 0 0 0 0 0 0
0 0 0 0 0 0 0 0 0 0 0 0 0 0 0 0 0 0 0 0 0 0 0 0 0 0 0 0 0 0 0 0 0 0 0 0 0 0 0 0 0 0 0
0 0 0 0 0 0 0 0 0 0 0 0 0 0 0 0 0 0 0 0 0 0 0 0 0 0 0 0 0 0 0 0 0 0 0 0 0 0 0 0 0 0 0
0 0 0 0 0 0 0 0 0 0 0 0 0 0 0 0 0 0 0 0 0 0 0 0 0 0 0 0 0 0 0 0 0 0 0 0 0 0 0 0 0 0 0
Wind_Speed
6 6 3 3 4 4 6 7 5 5 5 6 6 7 7 6 6 5 4 14 15 15 15 15 15 15 15 14 14 14 14 14 14 14 14 15 15 15 15 15 15 15 15
6 5 4 3 3 3 3 4 5 4 4 4 5 5 5 6 6 6 5 9 16 17 17 17 17 16 16 15 14 14 14 14 13 13 14 14 14 14 14 15 15 15 16
6 5 4 4 4 5 5 4 4 3 4 5 5 6 6 6 6 6 5 4 7 15 17 17 17 16 16 16 15 14 14 14 13 13 13 14 14 14 14 14 15 15 16
7 5 5 5 5 5 4 4 4 4 4 3 3 4 5 4 6 6 5 6 5 6 13 18 17 16 16 16 16 15 14 14 14 14 14 14 14 14 14 14 14 14 15
8 6 5 5 5 4 4 5 4 4 3 3 3 5 5 5 5 7 6 6 6 5 4 11 18 16 16 16 16 15 14 14 14 14 14 14 14 14 14 14 14 14 15
8 7 6 6 5 4 3 3 3 2 2 2 5 6 4 5 5 5 6 6 6 6 6 5 7 10 16 15 15 15 15 15 14 14 15 15 15 14 14 14 14 14 15
7 6 6 5 5 4 5 4 4 4 3 2 3 4 5 7 8 6 5 4 4 3 3 3 3 3 5 14 14 14 14 15 14 14 15 15 15 15 15 14 14 14 15
6 7 7 6 5 5 6 6 6 4 4 4 3 2 3 4 5 6 3 4 4 2 3 4 4 4 3 3 7 13 13 13 13 13 13 13 14 13 14 14 14 14 15
7 7 8 8 7 7 7 8 7 7 6 4 5 4 3 3 3 3 3 3 3 3 3 3 4 4 5 4 4 8 10 8 9 10 11 11 12 12 12 12 13 13 14
7 8 9 8 8 7 8 8 7 6 6 5 4 5 4 2 2 3 3 2 3 3 3 2 2 2 3 2 3 5 7 6 6 7 8 9 10 10 11 11 12 12 13
8 9 9 8 8 8 8 8 7 7 6 6 4 3 4 4 5 4 4 3 3 2 3 3 2 2 1 1 2 4 5 4 4 5 6 7 8 8 9 10 11 12 13
7 9 9 8 9 8 8 7 7 8 7 6 5 4 3 3 4 4 5 4 4 3 2 2 2 2 1 1 4 6 5 5 6 6 7 7 8 8 8 9 11 12 13
6 7 8 7 6 6 7 7 7 7 7 7 5 4 3 3 3 3 3 3 2 3 3 1 2 2 1 2 4 4 4 7 7 8 8 7 7 7 7 8 10 12 13
6 5 5 6 6 5 5 4 4 4 4 4 5 4 3 3 3 2 1 1 2 3 2 0 1 2 2 2 2 3 3 6 8 8 8 7 7 6 6 7 9 11 13
6 4 3 4 4 4 4 4 3 3 3 3 2 3 3 2 1 1 1 0 1 2 2 1 2 3 2 2 1 3 4 5 9 9 9 8 7 7 6 7 9 11 12
4 2 1 1 2 2 3 4 4 4 4 3 3 2 1 1 1 1 0 0 1 1 2 2 2 2 3 5 4 4 5 5 9 10 10 9 8 7 7 8 9 10 12
3 1 1 2 2 3 3 4 4 4 4 4 3 4 4 3 2 2 2 2 1 2 2 3 2 2 2 3 4 5 5 3 4 9 10 9 8 7 7 8 9 10 11
3 2 3 4 5 5 4 5 5 6 6 6 5 5 4 4 4 4 3 3 2 1 1 2 2 2 2 3 4 5 5 4 3 5 10 9 8 8 7 7 8 9 10
4 4 5 6 6 6 7 7 7 7 6 7 6 6 6 6 5 4 4 4 3 4 2 2 2 1 2 4 5 6 6 4 5 1 5 7 8 8 8 7 7 8 8
6 6 7 6 6 7 7 7 8 9 8 7 7 8 8 7 6 5 4 5 5 4 4 3 3 3 4 6 5 6 6 5 5 5 3 3 5 8 8 7 6 7 7
6 6 7 7 6 6 6 7 7 9 8 7 7 7 8 8 8 6 5 5 5 5 4 5 4 4 5 5 6 5 6 5 5 3 4 3 1 2 3 5 5 5 6
5 5 6 7 7 7 8 8 7 7 7 7 6 5 6 6 6 5 5 4 4 5 4 4 4 5 5 5 5 6 5 6 5 4 4 4 3 3 2 1 1 3 4
4 4 5 6 7 7 9 9 8 5 5 5 5 4 5 8 8 5 3 1 1 1 1 2 4 4 4 4 5 6 6 7 5 5 4 4 3 3 3 1 1 1 2
4 3 5 5 5 6 9 10 7 4 5 6 7 7 8 8 8 7 4 3 3 3 3 2 2 3 4 4 4 6 7 7 4 3 4 3 3 3 3 1 0 1 1
4 4 5 5 5 4 7 9 7 3 4 7 8 8 7 7 10 11 6 6 6 5 4 4 6 7 9 9 6 4 6 6 6 4 4 3 4 4 3 1 0 1 0
5 5 5 5 5 5 6 7 7 0 4 6 6 7 10 8 8 10 6 5 5 5 7 8 4 4 3 3 3 2 4 5 6 5 5 5 4 5 4 2 1 1 0
Wind_Direction
216 233 223 202 206 208 197 208 221 226 229 237 241 243 240 239 240 238 205 193 198 206 213 219 224 231 236 237 236 235 233 231 227 223 221 221 221 220 218 217 216 215 213
210 217 218 207 223 243 243 203 219 222 229 242 250 252 248 253 243 234 228 202 208 211 215 221 223 227 232 234 234 232 230 229 225 221 220 219 219 219 217 216 216 214 213
212 207 221 211 212 221 228 224 238 234 234 243 246 250 246 245 252 244 242 226 212 217 220 223 225 225 228 231 233 232 228 225 222 220 218 217 217 217 216 216 217 215 213
206 209 214 220 215 215 217 211 221 235 235 244 259 267 265 253 246 242 235 236 228 225 218 223 227 226 228 230 233 232 229 223 221 219 218 217 216 215 215 216 217 216 214
204 208 219 225 225 220 217 231 215 215 233 240 259 258 260 262 258 255 242 240 238 229 219 216 218 223 227 229 231 232 230 225 221 220 219 218 217 216 215 216 217 217 216
204 207 215 221 228 235 230 232 255 244 242 249 265 274 284 275 263 253 246 244 234 224 223 222 202 222 227 229 229 230 231 227 223 221 221 220 219 218 217 217 217 217 217
217 209 230 222 218 232 232 227 230 239 240 246 263 276 274 272 264 254 236 242 247 231 214 201 198 214 211 225 231 233 233 231 226 223 222 222 222 221 219 219 218 218 218
219 223 222 224 215 224 232 226 221 219 228 218 219 249 282 296 277 259 231 224 231 223 222 227 218 217 225 210 216 226 233 236 233 229 227 225 225 224 222 221 221 220 219
222 222 227 224 217 215 228 227 219 215 225 219 209 200 212 237 300 296 285 259 224 211 222 227 222 215 218 223 200 212 221 228 238 243 240 234 229 226 225 225 224 224 222
236 229 228 227 227 224 224 227 221 211 214 223 219 216 218 207 243 296 300 272 233 225 230 263 283 256 225 222 180 169 193 210 230 251 258 252 242 231 227 228 232 234 231
235 232 228 225 226 228 223 221 218 212 209 215 210 209 218 222 229 238 271 293 300 261 216 211 225 260 272 175 136 132 162 194 221 246 259 262 255 247 238 237 243 246 246
243 236 231 224 224 224 222 220 218 215 211 211 212 214 208 205 212 218 242 264 274 272 244 213 196 200 200 110 107 129 169 206 226 237 245 252 254 254 251 252 256 257 257
256 240 236 231 228 226 224 219 219 219 213 209 210 212 220 226 228 218 236 262 284 285 260 223 195 152 115 99 121 154 215 226 231 236 239 243 248 254 257 261 264 265 265
271 256 238 230 226 223 219 207 207 207 199 204 203 196 211 225 224 206 209 282 302 296 297 14 62 77 56 59 122 216 258 233 227 231 234 235 241 250 260 267 272 273 271
278 264 242 230 211 200 191 182 179 171 159 177 172 177 212 213 203 150 120 180 295 308 319 6 29 50 38 15 152 265 280 238 219 222 226 230 236 246 257 268 273 273 270
298 290 238 180 177 180 176 167 156 155 150 146 141 145 139 76 67 65 57 42 13 326 326 351 9 22 25 347 350 322 303 273 223 222 224 228 236 246 259 272 278 278 274
323 314 116 105 97 99 124 133 129 131 131 124 121 119 99 69 48 15 32 41 35 23 340 332 356 356 19 342 328 310 296 266 230 220 221 225 233 245 260 273 281 284 282
356 57 90 91 91 83 88 107 114 115 114 108 102 98 88 84 65 41 21 32 28 12 331 330 319 340 13 4 341 318 327 334 311 220 211 218 230 242 255 270 280 285 287
27 54 75 80 81 79 78 81 89 94 94 94 91 87 77 69 56 40 37 31 13 7 338 313 314 9 31 14 352 342 343 336 331 19 202 223 233 242 250 262 278 288 293
44 62 66 66 74 79 88 95 95 89 84 78 75 74 68 63 48 16 40 29 18 355 343 353 10 27 27 7 3 347 340 343 342 356 334 279 227 233 247 257 273 291 299
55 62 68 63 66 73 72 81 97 101 96 88 79 79 79 79 65 44 47 28 19 14 12 12 20 26 20 9 1 337 340 334 332 351 331 323 288 252 247 246 260 295 305
67 63 68 67 62 67 56 61 81 95 96 97 95 97 105 74 67 62 60 53 43 39 26 13 22 16 10 4 344 336 336 336 329 339 329 318 337 322 309 315 304 300 306
97 87 83 80 76 65 59 64 67 86 95 94 88 77 80 65 43 24 18 104 113 84 22 19 21 357 353 355 340 332 330 326 314 318 326 316 332 329 327 9 40 329 332
133 121 107 99 93 72 54 51 52 81 91 87 76 69 73 59 30 8 2 29 47 47 11 28 5 332 337 336 330 322 320 328 327 350 355 325 330 323 318 345 197 314 337
150 142 128 122 111 86 57 49 35 89 96 85 74 61 71 66 29 21 22 29 29 12 355 326 297 292 299 304 306 326 339 346 341 340 3 336 322 319 303 301 79 202 280
160 152 142 137 130 108 72 54 19 101 123 111 104 90 72 66 42 30 24 25 21 353 335 327 318 315 320 348 4 4 354 348 338 333 352 342 327 331 317 324 14 106 143